SCP
0 0 0 0 0 0 0 0 0 0 0 0 0 0 0 0 0 0 -0 0 -0 -0 -0 -0 -0 -0 -0 -0 -0 -0 -0 -0 -0 -0 -0 -0 -0 -0 -0 0 -0 -0 -0 -0 -0 -0 -0 -0 0
0 0 0 0 0 0 0 0 0 0 0 0 0 0 0 0 0 0 -0 0 -0 -0 -0 -0 -0 -0 -0 -0 -0 -0 -0 -0 -0 -0 -0 -0 -0 0 0 -0 -0 -0 -0 -0 0 0 0 -0 0
0 0 0 0 0 0 0 0 0 0 0 0 0 0 0 0 0 -0 -0 -0 -0 -0 -0 -0 -0 -0 -0 -0 -0 -0 -0 -0 -0 -0 -0 -0 0 0 0 -0 -0 -0 0 0 0 0 0 0 0
0 0 0 0 0 0 0 0 0 0 0 0 0 0 0 0 0 0 0 -0 -0 -0 -0 -0 -0 -0 -0 -0 -0 -0 0 0 0 0 0 0 0 0 0 0 0 0 0 0 0 0 0 0 0
0 0 0 0 0 0 0 0 0 0 0 0 0 0 0 0 0 0 0 0 0 0 0 -0 0 0 0 0 0 0 0 0 0 0 0 0 0 0 0 0 0 0 0 0 0 0 0 0 0
0 0 0 0 0 0 0 0 0 0 0 0 0 0 0 0 0 0 0 0 0 0 0 0 0 0 0 0 0 0 0 0 0 0 0 0 0 0 0 0 0 0 0 0 0 0 0 0 0
0 0 0 0 0 0 0 0 0 0 0 0 0 0 0 0 0 0 0 0 0 0 0 0 0 0 0 0 0 0 0 0 0 0 0 0 0 0 0 0 0 0 0 0 0 0 0 0 0
0 0 0 0 0 0 0 0 0 0 0 0 0 0 0 0 0 0 0 0 0 0 0 0 0 0 0 0 0 0 0 0 0 0 0 0 0 0 0 0 0 0 0 0 0 0 0 0 0
0 0 0 0 0 0 0 0 0 0 0 0 0 0 0 0 0 0 0 0 0 0 0 0 0 0 0 0 0 0 0 0 0 0 0 0 0 0 0 0 0 0 0 0 0 0 0 0 0
0 0 0 0 0 0 0 0 0 0 0 0 0 0 0 0 0 0 0 0 0 0 0 0 0 0 0 0 0 0 0 0 0 0 0 0 0 0 0 0 0 0 0 0 0 0 0 0 0
0 0 0 0 0 0 0 0 0 0 0 0 0 0 0 0 0 0 0 0 0 0 0 0 0 0 0 0 0 0 0 0 0 0 0 0 0 0 0 0 0 0 0 0 0 0 0 0 0
0 0 0 0 0 0 0 0 0 0 0 0 0 0 0 0 0 0 0 0 0 0 0 0 0 0 0 0 0 0 0 0 0 0 0 0 0 0 0 0 0 0 0 0 0 0 0 0 0
0 0 0 0 0 0 0 0 0 0 0 0 0 0 0 0 0 0 0 0 0 0 0 0 0 0 0 0 0 0 0 0 0 0 0 0 0 0 0 0 0 0 0 0 0 0 0 0 0
0 0 0 0 0 0 0 0 0 0 0 0 0 0 0 0 0 0 0 0 0 0 0 0 0 0 0 0 0 0 0 0 0 0 0 0 0 0 0 0 0 0 0 0 0 0 0 0 0
0 0 0 0 0 0 0 0 0 0 0 0 0 0 0 0 0 0 0 0 0 0 0 0 0 0 0 0 0 0 0 0 0 0 0 0 0 0 0 0 0 0 0 0 0 0 0 0 0
0 0 0 0 0 0 0 0 0 0 0 0 0 0 0 0 0 0 0 0 0 0 0 0 0 0 0 0 0 0 0 0 0 0 0 0 0 0 0 0 0 0 0 0 0 0 0 0 0
0 0 0 0 0 0 0 0 0 0 0 0 0 0 0 0 0 0 0 0 0 0 0 0 0 0 0 0 0 0 0 0 0 0 0 0 0 0 0 0 0 0 0 0 0 0 0 0 0
0 0 0 0 0 0 0 0 0 0 0 0 0 0 0 0 0 0 0 0 0 0 0 0 0 0 0 0 0 0 0 0 0 0 0 0 0 0 0 0 0 0 0 0 0 0 0 0 0
0 0 0 0 0 0 0 0 0 0 0 0 0 0 0 0 0 0 0 0 0 0 0 0 0 0 0 0 0 0 0 0 0 0 0 0 0 0 0 0 0 0 0 0 0 0 0 0 0
0 0 0 0 0 0 0 0 0 0 0 0 0 0 0 0 0 0 0 0 0 0 0 0 0 0 0 0 0 0 0 0 0 0 0 0 0 0 0 0 0 0 0 0 0 0 0 0 0
0 0 0 0 0 0 0 0 0 0 0 0 0 0 0 0 0 0 0 0 0 0 0 0 0 0 0 0 0 0 0 0 0 0 0 0 0 0 0 0 0 0 0 0 0 0 0 0 0
0 0 0 0 0 0 0 0 0 0 0 0 0 0 0 0 0 0 0 0 0 0 0 0 0 0 0 0 0 0 0 0 0 0 0 0 0 0 0 0 0 0 0 0 0 0 0 0 0
0 0 0 0 0 0 0 0 0 0 0 0 0 0 0 0 0 0 0 0 0 0 0 0 0 0 0 0 0 0 0 0 0 0 0 0 0 0 0 0 0 0 0 0 0 0 0 0 0
0 0 0 0 0 0 0 0 -0 0 0 0 0 0 0 0 0 0 0 0 0 0 0 0 0 0 0 0 0 0 0 0 0 0 0 0 0 0 0 0 0 0 0 0 0 0 0 0 0
0 0 0 0 0 0 0 0 0 0 0 0 0 0 0 0 0 0 0 0 0 0 0 0 0 0 0 0 0 0 0 0 0 0 0 0 0 0 0 0 0 0 0 0 0 0 0 0 0
0 0 0 0 0 0 0 0 0 0 0 0 0 0 0 0 0 0 0 0 0 0 0 0 0 0 0 0 0 0 0 0 0 0 0 0 0 0 0 0 0 0 0 0 0 0 0 0 0
0 0 0 0 0 0 0 0 0 0 0 0 0 0 0 0 0 0 0 0 0 0 0 0 0 0 0 0 0 0 0 0 0 0 0 0 0 0 0 0 0 0 0 0 0 0 0 0 0
0 0 0 0 0 0 0 0 0 0 0 0 0 0 0 0 0 0 0 0 0 0 0 0 0 0 0 0 0 0 0 0 0 0 0 0 0 0 0 0 0 0 0 0 0 0 0 0 0
0 0 0 0 0 0 0 0 0 0 0 0 0 0 0 0 0 0 0 0 0 0 0 0 0 0 0 0 0 0 0 0 0 0 0 0 0 0 0 0 0 0 0 0 0 0 0 0 0
0 0 0 0 0 0 0 0 0 0 0 0 0 0 0 0 0 0 0 0 0 0 0 0 0 0 0 0 0 0 0 0 0 0 0 0 0 0 0 0 0 0 0 0 0 0 0 0 0
Wind_Speed_500mb
16 10 4 8 11 11 20 8 4 13 11 7 5 2 2 14 10 6 21 18 29 39 40 40 36 32 32 30 27 26 23 19 15 11 7 4 4 5 7 6 8 14 11 6 10 17 19 9 10
15 10 6 11 13 18 13 13 16 13 9 13 10 5 9 10 12 15 28 23 35 38 37 40 38 32 30 29 28 25 22 18 14 10 6 4 5 6 5 0 4 7 8 6 6 12 13 17 13
15 18 12 8 14 21 9 9 14 14 17 14 11 2 4 10 9 22 15 28 41 37 35 36 39 34 30 27 26 24 21 17 13 10 8 6 6 5 4 5 3 2 6 8 7 8 7 11 15
10 9 11 13 21 14 8 8 8 17 16 9 3 9 8 7 9 12 24 33 39 36 34 36 39 34 30 29 25 22 20 17 14 13 9 6 3 2 3 10 7 8 9 10 10 11 11 9 10
13 10 15 15 26 14 10 5 11 17 22 19 13 11 6 8 13 19 28 33 34 35 32 35 38 35 31 27 25 23 21 17 15 12 7 4 3 3 3 9 10 10 11 11 12 14 12 13 12
13 10 12 23 22 12 12 15 14 19 18 14 12 7 10 11 18 23 28 30 31 33 31 35 39 38 35 29 27 26 24 21 16 15 10 5 3 2 2 5 7 9 10 11 12 13 14 15 13
18 12 21 11 11 12 14 12 18 21 19 17 1 9 12 16 20 26 29 27 30 32 31 35 36 35 39 33 31 29 25 20 16 14 12 8 7 7 5 5 5 7 9 12 13 13 14 16 20
8 7 9 15 17 10 10 13 5 13 18 5 5 7 13 21 22 25 26 28 29 31 32 38 36 32 33 38 34 28 24 20 17 17 17 16 15 13 11 10 9 10 12 15 17 17 17 16 18
4 10 13 11 13 6 9 13 10 5 11 12 12 4 15 23 25 27 27 28 31 34 37 37 41 35 33 27 27 27 25 21 21 22 22 22 20 17 16 14 14 20 21 23 24 24 21 20 18
14 10 11 8 3 2 5 9 7 10 21 24 19 15 18 21 26 31 33 34 36 36 39 39 39 37 33 27 27 28 27 29 30 29 28 25 22 21 15 18 17 24 29 33 35 32 26 28 28
10 10 4 6 4 5 7 11 12 13 16 22 25 29 24 25 27 31 33 33 38 39 38 36 35 32 31 31 30 29 31 29 28 24 18 18 18 20 22 29 32 33 35 36 36 33 37 36 33
9 19 14 3 3 5 11 8 14 27 29 1 5 12 23 25 31 34 34 35 34 37 38 35 32 34 34 26 26 24 28 26 25 24 26 27 26 28 29 35 32 35 41 40 43 38 38 40 43
19 13 10 14 10 15 19 25 24 30 33 29 18 27 25 26 30 32 34 35 36 39 40 39 36 35 32 31 33 29 26 25 24 26 30 27 29 30 33 35 35 35 37 46 44 38 31 34 37
2 11 21 16 21 18 14 25 4 9 24 30 38 35 34 35 38 34 37 40 41 41 41 40 37 35 33 35 31 32 30 28 27 28 31 31 35 38 39 40 38 34 35 35 37 37 36 38 37
3 11 19 24 19 12 7 21 34 39 17 17 19 20 21 21 23 37 38 41 41 41 43 49 43 43 39 37 34 33 31 29 29 32 34 36 34 29 24 22 25 31 36 40 42 43 43 44 42
7 6 9 13 16 9 12 25 11 13 20 25 24 17 17 18 17 28 32 37 40 42 49 47 47 45 42 36 36 33 32 32 31 31 30 27 22 19 22 28 36 43 46 48 47 46 47 47 46
13 15 20 11 19 8 21 13 17 14 18 22 24 17 17 20 23 21 30 36 40 42 47 51 50 47 42 39 36 35 32 31 31 29 26 22 22 25 32 41 47 50 49 46 45 44 45 48 50
16 15 21 20 12 16 19 33 25 18 24 27 28 29 29 29 33 33 34 38 41 43 48 56 53 49 45 41 37 32 30 30 26 24 23 23 30 37 43 47 48 48 47 47 47 48 49 51 54
14 18 21 10 8 9 28 33 36 34 39 40 42 40 33 30 24 28 40 41 43 46 49 57 55 52 46 41 35 30 28 26 25 25 26 32 38 44 45 43 43 44 45 47 47 49 50 51 48
25 26 25 22 8 8 25 39 37 39 37 48 45 42 35 28 27 29 34 43 46 50 50 51 52 49 44 36 32 28 29 28 26 28 33 36 39 39 39 39 41 43 45 47 47 46 47 48 42
30 32 25 14 5 21 17 33 36 36 23 39 35 32 29 29 29 33 37 40 44 46 50 51 50 46 41 36 31 30 26 25 25 29 31 33 32 33 34 37 40 42 45 46 48 47 45 44 41
29 24 27 20 6 9 3 17 26 13 20 21 31 30 29 27 27 34 39 42 45 44 48 51 48 43 37 34 32 27 23 17 24 25 24 25 26 29 33 37 41 43 45 46 47 46 46 44 44
12 5 13 17 15 5 16 9 14 15 27 31 29 32 27 26 29 38 42 43 44 50 52 49 45 39 35 33 28 23 21 20 20 18 19 22 27 31 33 35 38 43 44 46 47 48 45 41 39
22 16 12 7 7 11 20 20 47 33 36 29 29 31 29 30 33 40 42 47 47 51 52 48 42 39 35 28 22 19 18 14 13 14 19 23 27 31 34 36 39 41 42 44 46 46 44 41 40
24 23 8 10 11 20 8 20 39 7 12 14 28 36 35 36 42 48 48 46 51 55 51 46 42 35 28 22 19 17 14 11 12 15 19 22 26 31 36 41 45 49 53 52 49 46 44 42 41
35 27 16 20 22 23 7 19 17 2 3 10 27 35 38 43 45 47 47 48 53 52 49 43 36 29 24 21 19 14 11 10 12 14 17 22 27 33 39 43 45 46 50 52 50 49 45 41 38
22 27 26 6 1 7 13 19 23 15 14 17 32 41 45 47 46 46 44 47 51 49 43 36 31 27 23 21 16 13 11 10 12 15 17 22 29 35 40 43 44 44 45 45 44 44 44 44 44
14 4 13 6 12 14 16 14 21 20 26 26 32 42 47 47 47 46 44 45 46 42 37 34 29 25 24 20 16 13 12 12 12 14 20 26 30 34 38 40 43 45 45 44 42 42 41 42 44
15 13 12 7 17 7 11 8 12 8 21 32 34 45 49 50 49 47 43 44 44 40 36 32 31 29 24 20 17 15 12 10 13 18 22 25 29 33 35 38 42 45 47 45 45 44 43 44 46
22 26 31 12 10 19 7 10 6 10 9 24 34 44 46 46 46 44 41 43 43 39 35 35 32 28 25 21 16 12 10 10 14 17 20 24 28 31 35 39 42 44 44 43 44 45 42 44 47
Wind_Direction_500mb
253 251 264 269 246 229 256 213 314 178 190 146 110 181 324 8 355 25 146 155 152 156 168 168 164 166 169 168 170 170 169 171 171 172 186 221 277 307 318 337 28 29 38 37 7 11 13 44 194
217 186 223 261 252 239 249 152 199 181 90 161 150 169 196 103 65 109 146 156 155 155 165 170 167 168 170 172 174 175 175 175 181 190 207 230 268 283 285 78 82 42 45 47 354 16 9 15 44
180 168 234 230 248 251 275 161 174 141 152 162 147 304 58 81 96 139 150 150 154 157 162 175 172 170 173 176 178 176 180 187 197 206 218 254 277 276 250 178 114 209 287 341 0 347 349 339 352
145 185 245 244 236 259 283 159 160 158 169 173 205 172 116 97 126 155 148 148 155 157 164 179 176 176 179 183 184 186 194 200 207 212 219 243 271 328 232 193 184 237 265 311 318 319 292 303 314
165 220 229 235 242 231 227 126 191 188 173 178 192 141 116 127 131 139 146 152 161 160 179 182 181 183 188 194 197 198 204 209 208 209 225 249 255 283 194 200 219 237 270 294 305 308 300 274 297
206 262 228 229 212 203 225 201 207 214 183 152 198 174 117 158 143 150 152 155 168 165 181 185 186 185 192 199 203 207 207 210 217 219 224 240 246 251 172 197 220 246 267 291 314 319 293 267 271
264 228 243 268 231 214 209 189 212 208 190 192 111 220 105 156 161 156 161 165 170 171 180 180 188 190 189 196 201 208 212 216 228 232 229 238 250 256 252 235 230 254 277 290 301 315 313 290 259
256 273 241 226 215 203 158 187 217 232 207 135 190 234 170 163 158 158 162 168 172 179 184 181 188 194 198 201 203 203 210 215 224 227 231 245 249 252 254 253 253 275 281 289 294 297 301 307 263
247 249 242 234 219 131 161 204 187 207 238 204 191 174 131 157 165 169 169 176 180 184 187 190 186 194 197 201 207 205 208 212 224 230 240 247 253 255 255 254 272 284 286 286 287 287 291 293 291
228 243 247 24 348 175 150 241 210 228 209 220 206 186 179 168 175 184 187 190 189 189 187 193 194 192 193 195 209 205 210 223 234 239 243 245 249 248 257 273 287 290 293 291 284 285 287 290 289
192 250 10 205 256 287 252 244 225 239 234 233 216 209 196 187 193 200 203 208 202 198 192 193 193 188 197 198 206 217 220 222 226 229 229 244 258 266 277 285 291 289 285 284 287 287 274 276 262
249 249 256 298 247 249 242 273 248 239 240 95 200 189 198 200 205 210 213 210 203 201 195 194 189 191 198 204 213 213 215 224 239 244 256 263 271 280 281 280 283 287 282 281 289 287 278 273 270
235 257 260 254 243 262 267 257 261 260 243 248 230 228 223 220 222 220 218 214 208 207 197 191 190 190 196 193 210 223 229 233 244 250 259 264 264 266 273 275 277 277 277 289 287 280 274 271 270
21 260 265 263 257 250 257 270 269 234 219 236 235 245 242 237 233 227 218 213 208 205 197 193 190 189 193 205 218 222 225 236 245 252 257 262 271 274 274 277 281 285 286 288 286 281 273 267 267
272 274 249 237 235 248 240 258 233 241 200 199 205 225 228 225 227 220 220 212 207 204 199 206 202 211 213 215 219 224 229 235 245 253 262 269 268 267 269 276 286 292 297 298 296 293 288 283 280
231 235 250 124 184 186 200 257 144 179 208 223 209 204 210 219 230 213 209 209 206 203 208 207 208 210 213 215 219 224 231 241 247 258 260 257 253 261 278 288 294 296 298 297 295 293 291 289 286
208 252 219 215 200 169 207 271 114 177 195 195 204 223 232 227 222 204 204 202 201 200 207 202 206 207 212 214 216 227 232 241 251 250 244 242 257 274 287 294 297 298 297 295 293 291 290 289 287
229 231 240 242 167 214 220 250 257 200 215 220 234 250 249 243 233 223 210 202 197 192 203 207 209 212 211 214 218 224 234 240 230 226 236 257 276 287 294 297 299 301 301 301 299 296 293 291 291
292 259 254 209 134 244 240 254 265 262 221 245 251 250 245 242 235 216 207 200 192 187 195 202 208 209 211 208 213 221 216 213 220 236 257 275 286 293 297 300 304 305 305 304 302 300 298 297 295
239 253 259 272 163 244 269 266 264 262 252 247 252 253 240 232 226 215 200 191 187 187 188 190 195 197 197 200 202 198 209 215 238 259 273 282 290 296 302 305 307 309 309 308 305 301 299 296 300
229 235 235 238 219 231 283 274 256 253 240 244 242 245 238 228 218 197 190 185 179 177 179 181 186 190 196 205 203 208 217 235 251 264 278 288 294 301 307 311 313 314 313 311 307 304 301 298 294
244 226 240 248 221 246 293 285 270 251 225 215 225 221 224 215 203 191 183 175 173 169 174 178 182 188 193 196 202 208 219 231 255 270 283 294 305 313 316 316 314 313 312 309 307 304 300 296 293
246 119 208 227 234 360 198 257 256 242 236 227 216 215 207 198 189 182 176 171 164 171 172 175 180 184 190 197 203 214 235 252 264 281 300 311 313 311 312 314 315 314 311 308 305 302 299 295 291
132 122 113 142 146 242 194 199 271 246 234 229 193 197 190 179 173 172 168 166 166 168 172 175 179 184 189 196 211 237 257 259 272 289 303 310 317 321 322 321 319 317 314 310 306 302 298 293 287
192 171 177 207 196 239 166 196 247 311 307 280 178 187 182 171 165 163 164 163 167 169 172 176 180 184 193 212 234 241 233 247 276 298 309 319 323 325 327 330 328 323 319 317 313 309 303 295 288
201 199 224 245 235 242 143 224 257 325 64 203 186 180 172 169 168 168 166 166 168 171 174 178 184 193 208 226 217 212 231 261 285 300 312 322 328 333 334 332 327 323 321 321 321 318 317 312 303
188 225 250 271 204 286 226 245 273 166 186 194 175 173 174 171 169 166 165 168 169 172 178 186 195 204 214 202 202 219 239 267 290 304 318 331 338 337 332 328 326 324 324 324 322 322 325 321 315
233 278 188 195 222 233 238 253 246 204 199 190 185 181 175 172 170 168 168 170 174 179 187 193 202 204 196 199 210 226 248 263 285 321 338 341 336 331 327 326 325 321 316 312 308 306 307 305 307
189 216 223 267 228 245 264 228 39 15 203 196 189 186 177 174 173 171 172 176 181 188 193 201 199 195 197 203 214 228 242 280 321 336 335 333 331 329 329 329 324 317 311 305 298 297 300 301 304
260 231 213 217 223 243 305 280 39 5 240 186 187 185 179 177 175 175 177 183 190 196 201 195 193 195 198 205 213 232 263 305 325 327 329 330 331 333 333 330 326 324 321 314 301 296 298 300 300
Wind_Speed_850mb
16 10 4 8 11 11 20 8 4 13 11 7 5 2 2 14 10 6 21 18 29 39 40 40 36 32 32 30 27 26 23 19 15 11 7 4 4 5 7 6 8 14 11 6 10 17 19 9 10
15 10 6 11 13 18 13 13 16 13 9 13 10 5 9 10 12 15 28 23 35 38 37 40 38 32 30 29 28 25 22 18 14 10 6 4 5 6 5 0 4 7 8 6 6 12 13 17 13
15 18 12 8 14 21 9 9 14 14 17 14 11 2 4 10 9 22 15 28 41 37 35 36 39 34 30 27 26 24 21 17 13 10 8 6 6 5 4 5 3 2 6 8 7 8 7 11 15
10 9 11 13 21 14 8 8 8 17 16 9 3 9 8 7 9 12 24 33 39 36 34 36 39 34 30 29 25 22 20 17 14 13 9 6 3 2 3 10 7 8 9 10 10 11 11 9 10
13 10 15 15 26 14 10 5 11 17 22 19 13 11 6 8 13 19 28 33 34 35 32 35 38 35 31 27 25 23 21 17 15 12 7 4 3 3 3 9 10 10 11 11 12 14 12 13 12
13 10 12 23 22 12 12 15 14 19 18 14 12 7 10 11 18 23 28 30 31 33 31 35 39 38 35 29 27 26 24 21 16 15 10 5 3 2 2 5 7 9 10 11 12 13 14 15 13
18 12 21 11 11 12 14 12 18 21 19 17 1 9 12 16 20 26 29 27 30 32 31 35 36 35 39 33 31 29 25 20 16 14 12 8 7 7 5 5 5 7 9 12 13 13 14 16 20
8 7 9 15 17 10 10 13 5 13 18 5 5 7 13 21 22 25 26 28 29 31 32 38 36 32 33 38 34 28 24 20 17 17 17 16 15 13 11 10 9 10 12 15 17 17 17 16 18
4 10 13 11 13 6 9 13 10 5 11 12 12 4 15 23 25 27 27 28 31 34 37 37 41 35 33 27 27 27 25 21 21 22 22 22 20 17 16 14 14 20 21 23 24 24 21 20 18
14 10 11 8 3 2 5 9 7 10 21 24 19 15 18 21 26 31 33 34 36 36 39 39 39 37 33 27 27 28 27 29 30 29 28 25 22 21 15 18 17 24 29 33 35 32 26 28 28
10 10 4 6 4 5 7 11 12 13 16 22 25 29 24 25 27 31 33 33 38 39 38 36 35 32 31 31 30 29 31 29 28 24 18 18 18 20 22 29 32 33 35 36 36 33 37 36 33
9 19 14 3 3 5 11 8 14 27 29 1 5 12 23 25 31 34 34 35 34 37 38 35 32 34 34 26 26 24 28 26 25 24 26 27 26 28 29 35 32 35 41 40 43 38 38 40 43
19 13 10 14 10 15 19 25 24 30 33 29 18 27 25 26 30 32 34 35 36 39 40 39 36 35 32 31 33 29 26 25 24 26 30 27 29 30 33 35 35 35 37 46 44 38 31 34 37
2 11 21 16 21 18 14 25 4 9 24 30 38 35 34 35 38 34 37 40 41 41 41 40 37 35 33 35 31 32 30 28 27 28 31 31 35 38 39 40 38 34 35 35 37 37 36 38 37
3 11 19 24 19 12 7 21 34 39 17 17 19 20 21 21 23 37 38 41 41 41 43 49 43 43 39 37 34 33 31 29 29 32 34 36 34 29 24 22 25 31 36 40 42 43 43 44 42
7 6 9 13 16 9 12 25 11 13 20 25 24 17 17 18 17 28 32 37 40 42 49 47 47 45 42 36 36 33 32 32 31 31 30 27 22 19 22 28 36 43 46 48 47 46 47 47 46
13 15 20 11 19 8 21 13 17 14 18 22 24 17 17 20 23 21 30 36 40 42 47 51 50 47 42 39 36 35 32 31 31 29 26 22 22 25 32 41 47 50 49 46 45 44 45 48 50
16 15 21 20 12 16 19 33 25 18 24 27 28 29 29 29 33 33 34 38 41 43 48 56 53 49 45 41 37 32 30 30 26 24 23 23 30 37 43 47 48 48 47 47 47 48 49 51 54
14 18 21 10 8 9 28 33 36 34 39 40 42 40 33 30 24 28 40 41 43 46 49 57 55 52 46 41 35 30 28 26 25 25 26 32 38 44 45 43 43 44 45 47 47 49 50 51 48
25 26 25 22 8 8 25 39 37 39 37 48 45 42 35 28 27 29 34 43 46 50 50 51 52 49 44 36 32 28 29 28 26 28 33 36 39 39 39 39 41 43 45 47 47 46 47 48 42
30 32 25 14 5 21 17 33 36 36 23 39 35 32 29 29 29 33 37 40 44 46 50 51 50 46 41 36 31 30 26 25 25 29 31 33 32 33 34 37 40 42 45 46 48 47 45 44 41
29 24 27 20 6 9 3 17 26 13 20 21 31 30 29 27 27 34 39 42 45 44 48 51 48 43 37 34 32 27 23 17 24 25 24 25 26 29 33 37 41 43 45 46 47 46 46 44 44
12 5 13 17 15 5 16 9 14 15 27 31 29 32 27 26 29 38 42 43 44 50 52 49 45 39 35 33 28 23 21 20 20 18 19 22 27 31 33 35 38 43 44 46 47 48 45 41 39
22 16 12 7 7 11 20 20 47 33 36 29 29 31 29 30 33 40 42 47 47 51 52 48 42 39 35 28 22 19 18 14 13 14 19 23 27 31 34 36 39 41 42 44 46 46 44 41 40
24 23 8 10 11 20 8 20 39 7 12 14 28 36 35 36 42 48 48 46 51 55 51 46 42 35 28 22 19 17 14 11 12 15 19 22 26 31 36 41 45 49 53 52 49 46 44 42 41
35 27 16 20 22 23 7 19 17 2 3 10 27 35 38 43 45 47 47 48 53 52 49 43 36 29 24 21 19 14 11 10 12 14 17 22 27 33 39 43 45 46 50 52 50 49 45 41 38
22 27 26 6 1 7 13 19 23 15 14 17 32 41 45 47 46 46 44 47 51 49 43 36 31 27 23 21 16 13 11 10 12 15 17 22 29 35 40 43 44 44 45 45 44 44 44 44 44
14 4 13 6 12 14 16 14 21 20 26 26 32 42 47 47 47 46 44 45 46 42 37 34 29 25 24 20 16 13 12 12 12 14 20 26 30 34 38 40 43 45 45 44 42 42 41 42 44
15 13 12 7 17 7 11 8 12 8 21 32 34 45 49 50 49 47 43 44 44 40 36 32 31 29 24 20 17 15 12 10 13 18 22 25 29 33 35 38 42 45 47 45 45 44 43 44 46
22 26 31 12 10 19 7 10 6 10 9 24 34 44 46 46 46 44 41 43 43 39 35 35 32 28 25 21 16 12 10 10 14 17 20 24 28 31 35 39 42 44 44 43 44 45 42 44 47
Wind_Direction_850mb
253 251 264 269 246 229 256 213 314 178 190 146 110 181 324 8 355 25 146 155 152 156 168 168 164 166 169 168 170 170 169 171 171 172 186 221 277 307 318 337 28 29 38 37 7 11 13 44 194
217 186 223 261 252 239 249 152 199 181 90 161 150 169 196 103 65 109 146 156 155 155 165 170 167 168 170 172 174 175 175 175 181 190 207 230 268 283 285 78 82 42 45 47 354 16 9 15 44
180 168 234 230 248 251 275 161 174 141 152 162 147 304 58 81 96 139 150 150 154 157 162 175 172 170 173 176 178 176 180 187 197 206 218 254 277 276 250 178 114 209 287 341 0 347 349 339 352
145 185 245 244 236 259 283 159 160 158 169 173 205 172 116 97 126 155 148 148 155 157 164 179 176 176 179 183 184 186 194 200 207 212 219 243 271 328 232 193 184 237 265 311 318 319 292 303 314
165 220 229 235 242 231 227 126 191 188 173 178 192 141 116 127 131 139 146 152 161 160 179 182 181 183 188 194 197 198 204 209 208 209 225 249 255 283 194 200 219 237 270 294 305 308 300 274 297
206 262 228 229 212 203 225 201 207 214 183 152 198 174 117 158 143 150 152 155 168 165 181 185 186 185 192 199 203 207 207 210 217 219 224 240 246 251 172 197 220 246 267 291 314 319 293 267 271
264 228 243 268 231 214 209 189 212 208 190 192 111 220 105 156 161 156 161 165 170 171 180 180 188 190 189 196 201 208 212 216 228 232 229 238 250 256 252 235 230 254 277 290 301 315 313 290 259
256 273 241 226 215 203 158 187 217 232 207 135 190 234 170 163 158 158 162 168 172 179 184 181 188 194 198 201 203 203 210 215 224 227 231 245 249 252 254 253 253 275 281 289 294 297 301 307 263
247 249 242 234 219 131 161 204 187 207 238 204 191 174 131 157 165 169 169 176 180 184 187 190 186 194 197 201 207 205 208 212 224 230 240 247 253 255 255 254 272 284 286 286 287 287 291 293 291
228 243 247 24 348 175 150 241 210 228 209 220 206 186 179 168 175 184 187 190 189 189 187 193 194 192 193 195 209 205 210 223 234 239 243 245 249 248 257 273 287 290 293 291 284 285 287 290 289
192 250 10 205 256 287 252 244 225 239 234 233 216 209 196 187 193 200 203 208 202 198 192 193 193 188 197 198 206 217 220 222 226 229 229 244 258 266 277 285 291 289 285 284 287 287 274 276 262
249 249 256 298 247 249 242 273 248 239 240 95 200 189 198 200 205 210 213 210 203 201 195 194 189 191 198 204 213 213 215 224 239 244 256 263 271 280 281 280 283 287 282 281 289 287 278 273 270
235 257 260 254 243 262 267 257 261 260 243 248 230 228 223 220 222 220 218 214 208 207 197 191 190 190 196 193 210 223 229 233 244 250 259 264 264 266 273 275 277 277 277 289 287 280 274 271 270
21 260 265 263 257 250 257 270 269 234 219 236 235 245 242 237 233 227 218 213 208 205 197 193 190 189 193 205 218 222 225 236 245 252 257 262 271 274 274 277 281 285 286 288 286 281 273 267 267
272 274 249 237 235 248 240 258 233 241 200 199 205 225 228 225 227 220 220 212 207 204 199 206 202 211 213 215 219 224 229 235 245 253 262 269 268 267 269 276 286 292 297 298 296 293 288 283 280
231 235 250 124 184 186 200 257 144 179 208 223 209 204 210 219 230 213 209 209 206 203 208 207 208 210 213 215 219 224 231 241 247 258 260 257 253 261 278 288 294 296 298 297 295 293 291 289 286
208 252 219 215 200 169 207 271 114 177 195 195 204 223 232 227 222 204 204 202 201 200 207 202 206 207 212 214 216 227 232 241 251 250 244 242 257 274 287 294 297 298 297 295 293 291 290 289 287
229 231 240 242 167 214 220 250 257 200 215 220 234 250 249 243 233 223 210 202 197 192 203 207 209 212 211 214 218 224 234 240 230 226 236 257 276 287 294 297 299 301 301 301 299 296 293 291 291
292 259 254 209 134 244 240 254 265 262 221 245 251 250 245 242 235 216 207 200 192 187 195 202 208 209 211 208 213 221 216 213 220 236 257 275 286 293 297 300 304 305 305 304 302 300 298 297 295
239 253 259 272 163 244 269 266 264 262 252 247 252 253 240 232 226 215 200 191 187 187 188 190 195 197 197 200 202 198 209 215 238 259 273 282 290 296 302 305 307 309 309 308 305 301 299 296 300
229 235 235 238 219 231 283 274 256 253 240 244 242 245 238 228 218 197 190 185 179 177 179 181 186 190 196 205 203 208 217 235 251 264 278 288 294 301 307 311 313 314 313 311 307 304 301 298 294
244 226 240 248 221 246 293 285 270 251 225 215 225 221 224 215 203 191 183 175 173 169 174 178 182 188 193 196 202 208 219 231 255 270 283 294 305 313 316 316 314 313 312 309 307 304 300 296 293
246 119 208 227 234 360 198 257 256 242 236 227 216 215 207 198 189 182 176 171 164 171 172 175 180 184 190 197 203 214 235 252 264 281 300 311 313 311 312 314 315 314 311 308 305 302 299 295 291
132 122 113 142 146 242 194 199 271 246 234 229 193 197 190 179 173 172 168 166 166 168 172 175 179 184 189 196 211 237 257 259 272 289 303 310 317 321 322 321 319 317 314 310 306 302 298 293 287
192 171 177 207 196 239 166 196 247 311 307 280 178 187 182 171 165 163 164 163 167 169 172 176 180 184 193 212 234 241 233 247 276 298 309 319 323 325 327 330 328 323 319 317 313 309 303 295 288
201 199 224 245 235 242 143 224 257 325 64 203 186 180 172 169 168 168 166 166 168 171 174 178 184 193 208 226 217 212 231 261 285 300 312 322 328 333 334 332 327 323 321 321 321 318 317 312 303
188 225 250 271 204 286 226 245 273 166 186 194 175 173 174 171 169 166 165 168 169 172 178 186 195 204 214 202 202 219 239 267 290 304 318 331 338 337 332 328 326 324 324 324 322 322 325 321 315
233 278 188 195 222 233 238 253 246 204 199 190 185 181 175 172 170 168 168 170 174 179 187 193 202 204 196 199 210 226 248 263 285 321 338 341 336 331 327 326 325 321 316 312 308 306 307 305 307
189 216 223 267 228 245 264 228 39 15 203 196 189 186 177 174 173 171 172 176 181 188 193 201 199 195 197 203 214 228 242 280 321 336 335 333 331 329 329 329 324 317 311 305 298 297 300 301 304
260 231 213 217 223 243 305 280 39 5 240 186 187 185 179 177 175 175 177 183 190 196 201 195 193 195 198 205 213 232 263 305 325 327 329 330 331 333 333 330 326 324 321 314 301 296 298 300 300